KD6SMY Weather Reports


Display with metric or nautical units.
time (UTC)temp
F
wind
direction
speed
MPH
gust
MPH
rain 1hr
in
rain 24hr
in
rain mn
in
humidity
%
barometer
mb
20260506062028 44 109 0.0 0.0 0.00 0.00 0.06 86 1017.8
20260506061027 44 109 0.0 0.0 0.00 0.00 0.06 85 1017.9
20260506051027 45 109 0.0 0.0 0.00 0.00 0.06 85 1016.9
20260506045027 45 109 0.0 0.0 0.00 0.00 0.06 86 1016.7
20260506044027 44 109 0.0 0.0 0.00 0.00 0.06 86 1016.0
20260506043028 44 109 0.0 0.0 0.00 0.00 0.06 87 1016.0
20260506042027 44 109 0.0 0.0 0.00 0.00 0.06 87 1015.9
20260506041027 44 109 0.0 0.0 0.00 0.00 0.06 87 1016.0
20260506040057 44 109 0.0 0.0 0.00 0.00 0.06 87 1015.9
20260506035027 44 109 0.0 0.0 0.00 0.00 0.06 87 1015.2
20260506034027 44 109 0.0 0.0 0.00 0.00 0.06 87 1015.2
20260506033027 45 109 0.0 0.0 0.00 0.00 0.06 87 1015.6
20260506032027 45 109 3.0 0.0 0.00 0.00 0.06 87 1015.5
20260506030027 45 109 0.0 0.0 0.00 0.00 0.06 87 1015.3
20260506025027 46 109 0.0 0.0 0.00 0.00 0.06 87 1015.2
20260506024027 46 109 0.0 0.0 0.00 0.00 0.06 87 1015.0
20260506023027 46 109 0.0 0.0 0.00 0.00 0.06 86 1014.8
20260506021028 47 109 0.0 0.0 0.00 0.00 0.06 86 1014.8
20260506013038 47 109 0.0 0.0 0.00 0.00 0.06 83 1014.2
20260506012038 47 109 0.0 0.0 0.00 0.00 0.06 82 1014.3
20260506011039 48 109 0.0 0.0 0.00 0.00 0.06 81 1014.8
20260506005038 49 133 0.0 0.0 0.00 0.00 0.06 77 1014.7
20260506003038 49 115 0.0 0.0 0.00 0.00 0.06 77 1014.6
20260506002039 49 80 0.0 0.0 0.00 0.00 0.06 77 1014.5
20260506001039 49 66 0.0 0.0 0.00 0.00 0.06 77 1014.6
20260505235038 49 109 0.0 0.0 0.00 0.00 0.06 78 1014.7
20260505234038 49 144 0.0 0.0 0.00 0.00 0.06 78 1014.8
20260505233039 49 145 0.0 0.0 0.00 0.00 0.06 79 1014.9
20260505232039 49 134 0.0 0.0 0.00 0.00 0.06 79 1014.9
20260505231038 49 148 0.0 0.0 0.00 0.00 0.06 78 1014.9
20260505230039 49 125 0.0 0.0 0.00 0.00 0.06 79 1015.0
20260505225038 49 99 0.0 0.0 0.00 0.00 0.06 80 1015.0
20260505224039 48 139 0.0 0.0 0.00 0.00 0.06 79 1014.6
20260505223039 48 80 0.0 0.0 0.00 0.00 0.06 81 1014.7
20260505222038 48 106 0.0 0.0 0.00 0.00 0.06 80 1014.7
20260505221038 48 100 0.0 0.0 0.00 0.00 0.06 81 1014.8
20260505220040 48 109 0.0 0.0 0.00 0.00 0.06 81 1015.0
20260505215039 48 137 0.0 0.0 0.00 0.00 0.06 82 1014.9
20260505214039 48 108 0.0 0.0 0.00 0.00 0.06 82 1014.9
20260505213038 47 131 0.0 0.0 0.00 0.00 0.06 83 1015.1
20260505212039 47 127 0.0 0.0 0.00 0.00 0.06 83 1015.2
20260505211038 46 102 0.0 0.0 0.00 0.00 0.06 84 1014.7
20260505205040 46 143 0.0 0.0 0.00 0.00 0.06 83 1014.7
20260505204039 47 97 0.0 0.0 0.00 0.00 0.06 83 1015.2
20260505203038 47 112 0.0 0.0 0.00 0.00 0.06 84 1015.2
20260505201039 47 119 0.0 0.0 0.00 0.00 0.06 83 1015.0
20260505200039 47 139 0.0 0.0 0.00 0.00 0.06 84 1015.1
20260505195039 46 150 0.0 0.0 0.00 0.00 0.06 83 1014.6
20260505194038 47 73 0.0 0.0 0.00 0.00 0.06 83 1014.7
20260505193039 46 98 0.0 0.0 0.00 0.00 0.06 85 1014.4
20260505192039 46 134 0.0 0.0 0.00 0.00 0.06 85 1014.5
20260505191039 46 104 0.0 0.0 0.00 0.00 0.06 84 1014.5
20260505190040 46 133 6.0 0.0 0.00 0.00 0.06 85 1014.5
20260505185039 45 120 6.0 0.0 0.00 0.00 0.06 86 1014.2
20260505183040 44 126 6.0 0.0 0.00 0.00 0.06 88 1014.0
20260505182039 43 143 11.0 0.0 0.00 0.00 0.06 89 1013.6
20260505181039 43 77 6.0 0.0 0.00 0.00 0.06 89 1013.6
20260505180038 43 70 6.0 0.0 0.00 0.00 0.06 88 1013.5
20260505175039 42 62 0.0 0.0 0.00 0.00 0.06 89 1013.3
20260505174039 42 82 6.0 0.0 0.00 0.00 0.06 89 1013.2
20260505172039 42 168 3.0 0.0 0.00 0.00 0.06 89 1012.9
20260505171040 42 324 0.0 0.0 0.00 0.00 0.06 90 1012.9
20260505165038 41 278 6.0 0.0 0.00 0.00 0.06 91 1012.2
20260505164040 41 343 6.0 0.0 0.00 0.00 0.06 91 1012.0
20260505163039 40 284 6.0 0.0 0.00 0.00 0.06 92 1011.5
20260505162039 40 314 11.0 0.0 0.00 0.00 0.06 92 1011.5
20260505161039 39 313 6.0 0.0 0.00 0.00 0.06 92 1011.3
20260505153039 40 42 3.0 0.0 0.00 0.00 0.06 93 1011.0
20260505152039 40 31 3.0 0.0 0.00 0.00 0.06 93 1010.8
20260505151039 39 25 3.0 0.0 0.00 0.00 0.06 93 1010.6
20260505125039 36 58 3.0 0.0 0.00 0.00 0.06 93 1009.7
20260505124039 36 44 0.0 0.0 0.00 0.00 0.06 93 1009.7
20260505123039 36 32 6.0 0.0 0.00 0.00 0.06 93 1009.6
20260505120039 36 41 3.0 0.0 0.00 0.00 0.06 93 1009.7
20260505115039 36 77 3.0 0.0 0.00 0.00 0.06 93 1009.9
20260505114039 36 16 0.0 0.0 0.00 0.00 0.06 93 1009.8
20260505112040 36 11 0.0 0.0 0.00 0.00 0.06 93 1010.0
20260505111039 36 11 0.0 0.0 0.00 0.00 0.06 93 1010.2
20260505102039 35 11 0.0 0.0 0.00 0.00 0.06 93 1010.5
20260505101039 35 11 0.0 0.0 0.00 0.00 0.06 93 1010.4
20260505100040 35 11 0.0 0.0 0.00 0.00 0.06 93 1010.6
20260505095039 35 11 0.0 0.0 0.02 0.00 0.06 93 1011.0
20260505094040 35 11 3.0 0.0 0.02 0.00 0.06 93 1010.8
20260505092040 35 11 0.0 0.0 0.02 0.00 0.06 93 1011.2
20260505091039 35 11 0.0 0.0 0.02 0.00 0.06 93 1011.1
20260505090039 35 11 0.0 0.0 0.02 0.00 0.06 93 1011.1
20260505085039 35 11 3.0 0.0 0.00 0.00 0.04 93 1011.0
20260505083040 34 329 0.0 0.0 0.02 0.00 0.04 93 1010.6
20260505081039 34 328 0.0 0.0 0.02 0.00 0.04 93 1010.4
20260505080040 34 328 0.0 0.0 0.04 0.00 0.04 93 1010.6
20260505075039 34 328 0.0 0.0 0.04 0.00 0.04 93 1011.4
20260505074039 34 328 3.0 0.0 0.02 0.00 0.02 93 1011.5
20260505073039 34 328 0.0 0.0 0.02 0.00 0.02 93 1011.5
20260505071039 34 329 0.0 0.0 0.02 0.00 0.02 93 1011.4
20260505070039 34 329 0.0 0.0 0.02 0.00 0.00 93 1010.9